This demonstration page uses our WeatherBlox Daily Observations layout. Learn more.

Left ArrowRight Arrow

Hourly Observations for October 26, 2020

Temp ( °F °C ) Dew Point ( °F °C ) Humidity (%) Winds ( mph kmh ) Pressure ( in mb ) Visibility ( mi km ) Precip ( " mm )
12:53 am 00:53 Cloudy 47 8.3 41 5 80 80 NNE 16 26 29.90 1012 10 16 0.00 0.00
1:53 am 01:53 Cloudy 45 7.2 40 4.4 83 83 NE 20 31 29.92 1013 8 13 0.00 0.00
2:53 am 02:53 Cloudy with Mist and Fog 42 5.6 40 4.4 92 92 NNE 18 30 29.94 1014 4 6 0.00 0.00
3:39 am 03:39 Cloudy 41 5 38 3.3 89 89 NE 21 33 30.09 1019 9 14 0.00 0.00
3:53 am 03:53 Cloudy 41 5 37 2.8 86 86 NE 14 22 29.96 1015 10 16 0.00 0.00
4:10 am 04:10 Cloudy 40 4.4 37 2.8 89 89 NNE 18 30 30.12 1020 7 11 0.00 0.00
6:53 am 06:53 Cloudy 36 2.2 34 1.1 93 93 NNE 14 22 30.06 1018 9 14 0.00 0.00
7:13 am 07:13 Cloudy 36 2.2 32 0 86 86 NNE 14 22 30.20 1023 10 16 0.00 0.00
7:20 am 07:20 Cloudy 36 2.2 33 0.6 89 89 NNE 10 17 30.21 1023 10 16 0.00 0.00
7:22 am 07:22 Cloudy 36 2.2 33 0.6 89 89 NE 10 17 30.21 1023 10 16 0.00 0.00
7:34 am 07:34 Cloudy 36 2.2 33 0.6 89 89 NNE 17 28 30.21 1023 10 16 0.00 0.00
7:53 am 07:53 Cloudy 36 2.2 31 -0.6 82 82 NE 16 26 30.10 1019 10 16 0.00 0.00
8:53 am 08:53 Cloudy 36 2.2 31 -0.6 82 82 NNE 12 19 30.13 1020 10 16 0.00 0.00
9:03 am 09:03 Cloudy 35 1.7 31 -0.6 85 85 N 12 19 30.26 1025 8 13 0.00 0.00
9:15 am 09:15 Cloudy with Mist and Fog 35 1.7 33 0.6 93 93 N 13 20 30.26 1025 3 4 0.00 0.00
9:21 am 09:21 Cloudy with Mist and Fog 35 1.7 33 0.6 93 93 NNE 13 20 30.26 1025 2 3 0.00 0.00
9:28 am 09:28 Cloudy with Mist and Fog 34 1.1 33 0.6 97 97 NNE 14 22 30.26 1025 2 3 0.00 0.00
9:42 am 09:42 Cloudy with Mist and Fog 34 1.1 32 0 92 92 NNE 15 24 30.27 1025 2 3 0.00 0.00
10:27 am 10:27 Cloudy 36 2.2 31 -0.6 82 82 NE 14 22 30.27 1025 10 16 0.00 0.00
10:53 am 10:53 Cloudy 36 2.2 30 -1.1 79 79 NE 13 20 30.17 1022 10 16 0.00 0.00
11:32 am 11:32 Cloudy 37 2.8 29 -1.7 73 73 NE 14 22 30.26 1025 10 16 0.00 0.00
11:53 am 11:53 Cloudy 38 3.3 30 -1.1 73 73 ENE 13 20 30.16 1021 10 16 0.00 0.00
12:27 pm 12:27 Cloudy 38 3.3 30 -1.1 73 73 NNE 13 20 30.24 1024 10 16 0.00 0.00
12:53 pm 12:53 Cloudy 38 3.3 30 -1.1 73 73 NE 12 19 30.14 1021 10 16 0.00 0.00
1:03 pm 13:03 Cloudy 38 3.3 30 -1.1 73 73 NE 10 17 30.23 1024 10 16 0.00 0.00
1:53 pm 13:53 Cloudy with Haze 38 3.3 33 0.6 83 83 NNE 13 20 30.13 1020 4 6 0.00 0.00
2:41 pm 14:41 Cloudy 38 3.3 31 -0.6 76 76 NNE 14 22 30.20 1023 7 11 0.00 0.00
2:50 pm 14:50 Cloudy with Haze 37 3 32 0 81 81 NNE 15 24 30.20 1023 6 10 0.00 0.00
2:53 pm 14:53 Cloudy with Haze 37 2.8 32 0 82 82 NNE 15 24 30.11 1020 5 8 0.00 0.00
3:23 pm 15:23 Cloudy 38 3.3 30 -1.1 73 73 NE 15 24 30.18 1022 10 16 0.00 0.00
3:53 pm 15:53 Cloudy 37 2.8 29 -1.7 73 73 NNE 16 26 30.10 1019 10 16 0.00 0.00
4:53 pm 16:53 Cloudy 37 2.8 29 -1.7 73 73 NNE 17 28 30.10 1019 10 16 0.00 0.00
5:18 pm 17:18 Cloudy 36 2.2 29 -1.7 76 76 NE 14 22 30.19 1022 10 16 0.00 0.00
5:53 pm 17:53 Cloudy 35 1.7 28 -2.2 76 76 NNE 17 28 30.12 1020 10 16 0.00 0.00
6:53 pm 18:53 Cloudy 34 1.1 26 -3.3 73 73 NNE 18 30 30.13 1020 10 16 0.00 0.00
7:06 pm 19:06 Cloudy 33 0.6 26 -3.3 75 75 NNE 16 26 30.23 1024 10 16 0.00 0.00
7:53 pm 19:53 Cloudy 32 0 26 -3.3 79 79 NNE 18 30 30.15 1021 10 16 0.00 0.00
8:16 pm 20:16 Cloudy 32 0 25 -3.9 75 75 NE 16 26 30.25 1025 10 16 0.00 0.00
8:33 pm 20:33 Cloudy 31 -0.6 26 -3.3 82 82 NNE 14 22 30.27 1025 10 16 0.00 0.00
8:53 pm 20:53 Cloudy 31 -0.6 25 -3.9 79 79 NNE 16 26 30.18 1022 10 16 0.00 0.00
9:05 pm 21:05 Cloudy 31 -0.6 25 -3.9 79 79 NNE 16 26 30.28 1025 10 16 0.00 0.00
9:13 pm 21:13 Cloudy 31 -0.6 25 -3.9 79 79 NNE 13 20 30.27 1025 10 16 0.00 0.00
9:45 pm 21:45 Cloudy with Mist and Fog 30 -1.1 26 -3.3 85 85 NNE 14 22 30.29 1026 5 8 0.00 0.00
9:53 pm 21:53 Cloudy with Mist and Fog 30 -1.1 27 -2.8 88 88 NNE 14 22 30.19 1022 4 6 0.00 0.00
10:24 pm 22:24 Cloudy with Mist and Fog 30 -1.1 27 -2.8 88 88 NNE 13 20 30.29 1026 3 5 0.00 0.00
10:42 pm 22:42 Cloudy with Mist and Fog 30 -1.1 27 -2.8 88 88 NNE 15 24 30.30 1026 4 6 0.00 0.00
10:53 pm 22:53 Cloudy with Mist and Fog 30 -1.1 28 -2.2 92 92 NNE 13 20 30.19 1023 4 6 0.00 0.00
11:13 pm 23:13 Cloudy with Mist and Fog 30 -1.1 28 -2.2 92 92 NNE 13 20 30.30 1026 4 6 0.00 0.00
11:50 pm 23:50 Cloudy with Mist and Fog 28 -2 27 -3 93 93 NNE 15 24 30.31 1026 6 10 0.00 0.00
11:53 pm 23:53 Cloudy with Mist and Fog 29 -1.7 27 -2.8 92 92 NNE 13 20 30.19 1023 6 10 0.00 0.00

Powered by AerisWeather